Sunlight Mountain, CO

11:53 PM MDT on October 21, 2017 (GMT -0600)
Sunlight Mountain

Weather History for K5SM - October, 2013

Change the Weather History Date:

Saturday, October 12, 2013

  Actual Average (KRIL) Record (KRIL)
Temperature  
Mean Temperature 32 °F -  
Max Temperature 37 °F 68 °F 86 °F (1950)
Min Temperature 26 °F 31 °F 21 °F (1977)
Degree Days  
Heating Degree Days 34    
Moisture  
Dew Point 29 °F    
Average Humidity 94    
Maximum Humidity 100    
Minimum Humidity 81    
Precipitation  
Precipitation 0.00 in - - ()
Sea Level Pressure  
Sea Level Pressure 30.26 in    
Wind  
Wind Speed 0 mph (North)    
Max Wind Speed 0 mph    
Max Gust Speed -    
Visibility 10 miles    
Events      
Averages and records for this station are not official NWS values.
T = Trace of Precipitation, MM = Missing Value Source: NWS Daily Summary

Daily Weather History Graph

Daily Weather History Graph

Search for Another Location

Airport or City:

Trip Planner

Search our weather history database for the weather conditions in past years. The results will help you decide how hot, cold, wet, or windy it might be!

Date:

Astronomy

Oct. 12, 2013 Rise Set
Actual Time 7:16 AM MDT 6:34 PM MDT
Civil Twilight 6:49 AM MDT 7:01 PM MDT
Nautical Twilight 6:18 AM MDT 7:32 PM MDT
Astronomical Twilight 5:47 AM MDT 8:03 PM MDT
Moon 2:44 PM MDT (10/12) 12:25 AM MDT (10/12)
Length of Visible Light 12h 11m
Length of Day
11h 17m
First Quarter, 59% of the Moon is Illuminated
Oct 12
First Quarter
Oct 18
Full
Oct 26
Last Quarter
Nov 3
New
Nov 9
First Quarter

Hourly Weather History & Observations

Time (MDT) Temp. Dew Point Humidity Pressure Visibility Wind Dir Wind Speed Gust Speed Precip Events Conditions
12:08 AM 28.4 °F 28.4 °F 100% 30.24 in 10.0 mi Calm Calm - N/A   Clear
12:27 AM 28.4 °F 28.4 °F 100% 30.24 in 10.0 mi Calm Calm - N/A   Clear
12:48 AM 28.4 °F 28.4 °F 100% 30.24 in 10.0 mi Calm Calm - N/A   Clear
1:08 AM 28.4 °F 28.4 °F 100% 30.24 in 10.0 mi Calm Calm - N/A   Clear
1:28 AM 28.4 °F 26.6 °F 93% 30.24 in 10.0 mi Calm Calm - N/A   Clear
1:48 AM 28.4 °F 26.6 °F 93% 30.25 in 10.0 mi Calm Calm - N/A   Clear
2:08 AM 26.6 °F 26.6 °F 100% 30.24 in 10.0 mi Calm Calm - N/A   Clear
2:28 AM 26.6 °F 26.6 °F 100% 30.24 in 10.0 mi Calm Calm - N/A   Clear
2:48 AM 26.6 °F 26.6 °F 100% 30.24 in 10.0 mi Calm Calm - N/A   Clear
3:08 AM 26.6 °F 26.6 °F 100% 30.24 in 10.0 mi Calm Calm - N/A   Clear
3:28 AM 26.6 °F 26.6 °F 100% 30.24 in 10.0 mi Calm Calm - N/A   Clear
3:48 AM 26.6 °F 24.8 °F 93% 30.24 in 10.0 mi Calm Calm - N/A   Clear
4:08 AM 26.6 °F 24.8 °F 93% 30.23 in 10.0 mi Calm Calm - N/A   Clear
4:28 AM 26.6 °F 24.8 °F 93% 30.23 in 7.0 mi Calm Calm - N/A   Clear
4:48 AM 26.6 °F 26.6 °F 100% 30.24 in 7.0 mi Calm Calm - N/A   Clear
5:08 AM 26.6 °F 26.6 °F 100% 30.24 in 7.0 mi Calm Calm - N/A   Clear
5:28 AM 26.6 °F 24.8 °F 93% 30.24 in 7.0 mi Calm Calm - N/A   Clear
5:48 AM 26.6 °F 24.8 °F 93% 30.25 in 7.0 mi Calm Calm - N/A   Clear
6:08 AM 26.6 °F 24.8 °F 93% 30.25 in 10.0 mi Calm Calm - N/A   Clear
6:28 AM 26.6 °F 24.8 °F 93% 30.25 in 10.0 mi Calm Calm - N/A   Clear
6:48 AM 26.6 °F 24.8 °F 93% 30.25 in 7.0 mi Calm Calm - N/A   Clear
7:08 AM 26.6 °F 24.8 °F 93% 30.26 in 7.0 mi Calm Calm - N/A   Clear
7:28 AM 26.6 °F 26.6 °F 100% 30.27 in 7.0 mi Calm Calm - N/A   Clear
7:48 AM 26.6 °F 26.6 °F 100% 30.27 in 7.0 mi Calm Calm - N/A   Clear
8:08 AM 28.4 °F 26.6 °F 93% 30.28 in 10.0 mi Calm Calm - N/A   Clear
8:28 AM 28.4 °F 26.6 °F 93% 30.28 in 10.0 mi Calm Calm - N/A   Scattered Clouds
8:48 AM 28.4 °F 28.4 °F 100% 30.29 in 10.0 mi Calm Calm - N/A   Mostly Cloudy
9:08 AM 30.2 °F 28.4 °F 93% 30.29 in 10.0 mi Calm Calm - N/A   Mostly Cloudy
9:27 AM 30.2 °F 30.2 °F 100% 30.29 in 10.0 mi Calm Calm - N/A   Mostly Cloudy
9:48 AM 30.2 °F 28.4 °F 93% 30.29 in 10.0 mi Calm Calm - N/A   Scattered Clouds
10:08 AM 32.0 °F 30.2 °F 93% 30.29 in 10.0 mi Calm Calm - N/A   Scattered Clouds
10:27 AM 32.0 °F 32.0 °F 100% 30.29 in 7.0 mi Calm Calm - N/A   Mostly Cloudy
10:48 AM 32.0 °F 30.2 °F 93% 30.29 in 10.0 mi Calm Calm - N/A   Mostly Cloudy
11:06 AM 33.8 °F 32.0 °F 93% 30.29 in 10.0 mi Calm Calm - N/A   Overcast
11:28 AM 32.0 °F 30.2 °F 93% 30.29 in 10.0 mi Calm Calm - N/A   Overcast
11:48 AM 32.0 °F 32.0 °F 100% 30.29 in 10.0 mi Calm Calm - N/A   Overcast
12:08 PM 32.0 °F 32.0 °F 100% 30.29 in 10.0 mi Calm Calm - N/A   Overcast
12:28 PM 32.0 °F 30.2 °F 93% 30.28 in 10.0 mi Calm Calm - N/A   Overcast
12:48 PM 33.8 °F 30.2 °F 87% 30.27 in 10.0 mi Calm Calm - N/A   Mostly Cloudy
1:08 PM 33.8 °F 32.0 °F 93% 30.26 in 10.0 mi Calm Calm - N/A   Mostly Cloudy
1:28 PM 35.6 °F 32.0 °F 87% 30.26 in 10.0 mi Calm Calm - N/A   Overcast
1:48 PM 35.6 °F 32.0 °F 87% 30.26 in 10.0 mi Calm Calm - N/A   Overcast
2:07 PM 35.6 °F 32.0 °F 87% 30.25 in 10.0 mi Calm Calm - N/A   Overcast
2:28 PM 35.6 °F 32.0 °F 87% 30.25 in 10.0 mi Calm Calm - N/A   Overcast
2:48 PM 35.6 °F 32.0 °F 87% 30.25 in 10.0 mi Calm Calm - N/A   Overcast
3:08 PM 37.4 °F 32.0 °F 81% 30.25 in 10.0 mi Calm Calm - N/A   Scattered Clouds
3:28 PM 35.6 °F 32.0 °F 87% 30.25 in 10.0 mi Calm Calm - N/A   Scattered Clouds
3:48 PM 35.6 °F 32.0 °F 87% 30.24 in 10.0 mi Calm Calm - N/A   Clear
4:08 PM 35.6 °F 32.0 °F 87% 30.25 in 10.0 mi Calm Calm - N/A   Scattered Clouds
4:28 PM 35.6 °F 32.0 °F 87% 30.25 in 10.0 mi Calm Calm - N/A   Scattered Clouds
4:48 PM 35.6 °F 32.0 °F 87% 30.25 in 10.0 mi Calm Calm - N/A   Scattered Clouds
5:07 PM 33.8 °F 32.0 °F 93% 30.25 in 10.0 mi Calm Calm - N/A   Scattered Clouds
5:28 PM 32.0 °F 32.0 °F 100% 30.25 in 10.0 mi Calm Calm - N/A   Clear
5:48 PM 32.0 °F 32.0 °F 100% 30.26 in 10.0 mi Calm Calm - N/A   Clear
6:07 PM 32.0 °F 30.2 °F 93% 30.26 in 10.0 mi Calm Calm - N/A   Clear
6:27 PM 32.0 °F 30.2 °F 93% 30.26 in 10.0 mi Calm Calm - N/A   Clear
6:48 PM 32.0 °F 30.2 °F 93% 30.26 in 10.0 mi Calm Calm - N/A   Clear
7:07 PM 32.0 °F 30.2 °F 93% 30.26 in 10.0 mi Calm Calm - N/A   Clear
7:28 PM 32.0 °F 28.4 °F 87% 30.26 in 10.0 mi Calm Calm - N/A   Clear
7:48 PM 30.2 °F 28.4 °F 93% 30.26 in 10.0 mi Calm Calm - N/A   Clear
8:08 PM 30.2 °F 28.4 °F 93% 30.26 in 10.0 mi Calm Calm - N/A   Clear
8:27 PM 30.2 °F 28.4 °F 93% 30.27 in 10.0 mi Calm Calm - N/A   Clear
8:48 PM 30.2 °F 28.4 °F 93% 30.27 in 10.0 mi Calm Calm - N/A   Clear
9:08 PM 30.2 °F 28.4 °F 93% 30.28 in 10.0 mi Calm Calm - N/A   Clear
9:28 PM 30.2 °F 28.4 °F 93% 30.27 in 10.0 mi Calm Calm - N/A   Clear
9:48 PM 30.2 °F 28.4 °F 93% 30.27 in 10.0 mi Calm Calm - N/A   Clear
10:08 PM 30.2 °F 28.4 °F 93% 30.27 in 10.0 mi Calm Calm - N/A   Clear
10:28 PM 30.2 °F 28.4 °F 93% 30.27 in 10.0 mi Calm Calm - N/A   Clear
10:48 PM 30.2 °F 28.4 °F 93% 30.27 in 10.0 mi Calm Calm - N/A   Clear
11:08 PM 30.2 °F 28.4 °F 93% 30.28 in 10.0 mi Calm Calm - N/A   Clear
11:28 PM 32.0 °F 30.2 °F 93% 30.28 in 10.0 mi Calm Calm - N/A   Clear
11:47 PM 32.0 °F 30.2 °F 93% 30.28 in 10.0 mi Calm Calm - N/A   Clear